This is the latest recevied weather packets stored in our database for station/object VE9LJW. If no packets are shown the sender has not sent any weather packets the latest 10 day(s).
| Time | Temp. | Humidity | Pressure | Rain* | Wind** | Luminosity | Snow |
|---|---|---|---|---|---|---|---|
| 1777925722 | 14.44° C | 75% | 1001.2 hPa | 0 mm | - | 84 W/m² | - |
| 1777925420 | 14.44° C | 75% | 1001.2 hPa | 0 mm | - | 60 W/m² | - |
| 1777925116 | 14.44° C | 76% | 1001.3 hPa | 0 mm | - | 77 W/m² | - |
| 1777924813 | 14.44° C | 75% | 1000.8 hPa | 0 mm | - | 147 W/m² | - |
| 1777924509 | 14.44° C | 75% | 1001.1 hPa | 0 mm | - | 213 W/m² | - |
| 1777924206 | 14.44° C | 76% | 1000.9 hPa | 0 mm | - | 133 W/m² | - |
| 1777923902 | 13.89° C | 77% | 1001 hPa | 0 mm | - | 131 W/m² | - |
| 1777923597 | 14.44° C | 77% | 1001.1 hPa | 0 mm | - | 92 W/m² | - |
| 1777923295 | 14.44° C | 77% | 1000.8 hPa | 0 mm | - | 117 W/m² | - |
| 1777922994 | 13.89° C | 76% | 1001.1 hPa | 0 mm | - | 139 W/m² | - |
| 1777922690 | 14.44° C | 78% | 1001.2 hPa | 0 mm | - | 94 W/m² | - |
| 1777922389 | 13.89° C | 77% | 1001.2 hPa | 0 mm | - | 160 W/m² | - |
| 1777922087 | 14.44° C | 75% | 1001.4 hPa | 0 mm | - | 143 W/m² | - |
| 1777921782 | 14.44° C | 75% | 1001.4 hPa | 0 mm | - | 230 W/m² | - |
| 1777921478 | 14.44° C | 73% | 1001.3 hPa | 0 mm | - | 190 W/m² | - |
| 1777921175 | 14.44° C | 72% | 1001.3 hPa | 0 mm | - | 265 W/m² | - |
| 1777920872 | 15° C | 71% | 1001.2 hPa | 0 mm | - | 161 W/m² | - |
| 1777920568 | 15° C | 67% | 1001.2 hPa | 0 mm | - | 168 W/m² | - |
| 1777920264 | 15.56° C | 65% | 1001 hPa | 0 mm | - | 116 W/m² | - |
| 1777919960 | 15.56° C | 62% | 1000.9 hPa | 0 mm | - | 75 W/m² | - |
| 1777919657 | 16.11° C | 60% | 1000.9 hPa | 0 mm | - | 48 W/m² | - |
| 1777919355 | 16.11° C | 57% | 1000.7 hPa | 0 mm | - | 38 W/m² | - |
| 1777919052 | 16.67° C | 53% | 1000.4 hPa | 0 mm | - | 72 W/m² | - |
| 1777918749 | 16.67° C | 50% | 1000.4 hPa | 0 mm | - | 67 W/m² | - |
| 1777918446 | 17.22° C | 50% | 1000.3 hPa | 0 mm | - | 44 W/m² | - |
* Rain latest hour (hover to see other rain measurements)
** Current wind speed in m/s (hover to see current wind gust speed)